When you browse on this site, cookies collect data to enhance your experience and personalize the content and advertising you see.
Visit our Privacy Policy to learn more. By continuing to use the site, you agree to this use of cookies and data.
  • In Belgien
  • Länderverzeichnis
  • Für 7 Tage
  • Wassertemperatur
  • Satellitenkarten
  • Wetterkarte
  • Widgets
  • user-avatar
    Anmelden

    Stündliche Wetter Ath

    Heute, 16 Januar, Mittwoch

    Zeit Temperatur Niederschläge Wind Luftdruck Luftfeuchtigkeit
    00:00 +5°C° 0 mm 5 m/S 758 mmHg 84%
    01:00 +5°C° 0 mm 5 m/S 758 mmHg 84%
    02:00 +3°C° 0 mm 6 m/S 757 mmHg 84%
    03:00 +3°C° 0 mm 6 m/S 757 mmHg 83%
    04:00 +3°C° 0 mm 6 m/S 756 mmHg 84%
    05:00 +2°C° 0 mm 5 m/S 756 mmHg 86%
    06:00 +2°C° 0 mm 5 m/S 756 mmHg 87%
    07:00 +2°C° 0 mm 5 m/S 755 mmHg 86%
    08:00 +2°C° 0 mm 6 m/S 755 mmHg 85%
    09:00 +2°C° 0 mm 6 m/S 755 mmHg 84%
    10:00 +3°C° 0 mm 6 m/S 754 mmHg 81%
    11:00 +3°C° 0 mm 6 m/S 753 mmHg 79%
    12:00 +4°C° 0 mm 6 m/S 753 mmHg 77%
    13:00 +4°C° 0 mm 6 m/S 752 mmHg 77%
    14:00 +4°C° 0 mm 6 m/S 751 mmHg 77%
    15:00 +4°C° 0 mm 6 m/S 751 mmHg 76%
    16:00 +4°C° 0.1 mm 7 m/S 750 mmHg 77%
    17:00 +4°C° 0.1 mm 7 m/S 750 mmHg 78%
    18:00 +2°C° 0.1 mm 8 m/S 749 mmHg 79%
    19:00 +2°C° 0.3 mm 8 m/S 749 mmHg 81%
    20:00 +4°C° 0.3 mm 8 m/S 749 mmHg 84%
    21:00 +4°C° 0.3 mm 8 m/S 749 mmHg 87%
    22:00 +4°C° 0.2 mm 7 m/S 749 mmHg 86%
    23:00 +5°C° 0.2 mm 5 m/S 749 mmHg 84%

    Morgen, 17 Januar, Donnerstag

    Zeit Temperatur Niederschläge Wind Luftdruck Luftfeuchtigkeit
    00:00 +4°C° 0.2 mm 4 m/S 750 mmHg 83%
    01:00 +4°C° 0 mm 4 m/S 750 mmHg 84%
    02:00 +3°C° 0 mm 5 m/S 749 mmHg 86%
    03:00 +2°C° 0 mm 5 m/S 749 mmHg 88%
    04:00 +3°C° 0.2 mm 5 m/S 750 mmHg 87%
    05:00 +3°C° 0.2 mm 6 m/S 750 mmHg 86%
    06:00 +3°C° 0.2 mm 6 m/S 750 mmHg 85%
    07:00 +3°C° 0.2 mm 6 m/S 750 mmHg 85%
    08:00 +3°C° 0.2 mm 5 m/S 751 mmHg 85%
    09:00 +3°C° 0.2 mm 5 m/S 751 mmHg 85%
    10:00 +3°C° 0.3 mm 6 m/S 752 mmHg 81%
    11:00 +3°C° 0.3 mm 6 m/S 753 mmHg 77%
    12:00 +3°C° 0.3 mm 7 m/S 754 mmHg 73%
    13:00 +3°C° 0.1 mm 6 m/S 754 mmHg 70%
    14:00 +3°C° 0.1 mm 6 m/S 755 mmHg 68%
    15:00 +2°C° 0.1 mm 5 m/S 756 mmHg 66%
    16:00 +1°C° 0 mm 5 m/S 756 mmHg 70%
    17:00 +1°C° 0 mm 4 m/S 757 mmHg 75%
    18:00 +1°C° 0 mm 3 m/S 758 mmHg 79%
    19:00 0°C° 0 mm 3 m/S 759 mmHg 80%
    20:00 0°C° 0 mm 3 m/S 759 mmHg 80%
    21:00 0°C° 0 mm 3 m/S 760 mmHg 80%
    22:00 0°C° 0 mm 3 m/S 760 mmHg 81%
    23:00 -1°C° 0 mm 3 m/S 760 mmHg 82%

    übermorgen, 18 Januar, Freitag

    Zeit Temperatur Niederschläge Wind Luftdruck Luftfeuchtigkeit
    00:00 -1°C° 0 mm 3 m/S 761 mmHg 83%
    01:00 -1°C° 0 mm 3 m/S 761 mmHg 82%
    02:00 -1°C° 0 mm 2 m/S 761 mmHg 82%
    03:00 -1°C° 0 mm 2 m/S 761 mmHg 82%
    04:00 -1°C° 0 mm 2 m/S 761 mmHg 82%
    05:00 -1°C° 0 mm 2 m/S 761 mmHg 82%
    06:00 -1°C° 0 mm 2 m/S 761 mmHg 82%
    07:00 -1°C° 0 mm 2 m/S 761 mmHg 80%
    08:00 +1°C° 0 mm 2 m/S 761 mmHg 79%
    09:00 +1°C° 0 mm 2 m/S 761 mmHg 78%
    10:00 +2°C° 0 mm 2 m/S 761 mmHg 73%
    11:00 +2°C° 0 mm 3 m/S 761 mmHg 68%
    12:00 +3°C° 0 mm 3 m/S 760 mmHg 63%
    13:00 +3°C° 0 mm 3 m/S 760 mmHg 65%
    14:00 +4°C° 0 mm 2 m/S 759 mmHg 67%
    15:00 +4°C° 0 mm 2 m/S 759 mmHg 68%
    16:00 +2°C° 0 mm 3 m/S 759 mmHg 72%
    17:00 +1°C° 0 mm 3 m/S 759 mmHg 76%
    18:00 0°C° 0 mm 3 m/S 759 mmHg 80%
    19:00 0°C° 0 mm 3 m/S 759 mmHg 80%
    20:00 -1°C° 0 mm 4 m/S 758 mmHg 79%
    21:00 -1°C° 0 mm 4 m/S 758 mmHg 79%
    22:00 -2°C° 0 mm 4 m/S 758 mmHg 79%
    23:00 -2°C° 0 mm 4 m/S 757 mmHg 79%

    19 Januar, Samstag

    Zeit Temperatur Niederschläge Wind Luftdruck Luftfeuchtigkeit
    00:00 -2°C° 0 mm 4 m/S 757 mmHg 80%
    01:00 -2°C° 0 mm 5 m/S 757 mmHg 80%
    02:00 -2°C° 0 mm 5 m/S 756 mmHg 80%
    03:00 -2°C° 0 mm 5 m/S 756 mmHg 80%
    04:00 -1°C° 0 mm 5 m/S 755 mmHg 81%
    05:00 -1°C° 0 mm 5 m/S 755 mmHg 82%
    06:00 -1°C° 0 mm 5 m/S 755 mmHg 83%
    07:00 -1°C° 0.2 mm 5 m/S 755 mmHg 82%
    08:00 0°C° 0.2 mm 5 m/S 754 mmHg 81%
    09:00 +1°C° 0.2 mm 6 m/S 754 mmHg 80%
    10:00 +1°C° 0.3 mm 5 m/S 754 mmHg 81%
    11:00 +1°C° 0.3 mm 5 m/S 754 mmHg 81%
    12:00 +2°C° 0.3 mm 5 m/S 754 mmHg 81%
    13:00 +2°C° 0.2 mm 5 m/S 754 mmHg 83%
    14:00 +3°C° 0.2 mm 4 m/S 753 mmHg 85%
    15:00 +2°C° 0.2 mm 3 m/S 753 mmHg 86%
    16:00 +2°C° 0 mm 3 m/S 753 mmHg 88%
    17:00 +1°C° 0 mm 3 m/S 754 mmHg 89%
    18:00 +2°C° 0 mm 2 m/S 754 mmHg 91%
    19:00 +2°C° 0 mm 2 m/S 754 mmHg 91%
    20:00 +1°C° 0 mm 2 m/S 754 mmHg 91%
    21:00 +1°C° 0 mm 2 m/S 755 mmHg 92%
    22:00 +1°C° 0 mm 2 m/S 755 mmHg 92%
    23:00 +1°C° 0 mm 2 m/S 755 mmHg 92%

    20 Januar, Sonntag

    Zeit Temperatur Niederschläge Wind Luftdruck Luftfeuchtigkeit
    00:00 +1°C° 0 mm 2 m/S 755 mmHg 93%
    01:00 -1°C° 0 mm 2 m/S 755 mmHg 93%
    02:00 -1°C° 0 mm 2 m/S 756 mmHg 93%
    03:00 -1°C° 0 mm 2 m/S 756 mmHg 93%
    04:00 -1°C° 0 mm 2 m/S 756 mmHg 93%
    05:00 -1°C° 0 mm 2 m/S 756 mmHg 93%
    06:00 -1°C° 0 mm 2 m/S 757 mmHg 93%
    07:00 -1°C° 0 mm 2 m/S 757 mmHg 92%
    08:00 +1°C° 0 mm 2 m/S 758 mmHg 91%
    09:00 +1°C° 0 mm 2 m/S 759 mmHg 90%
    10:00 +2°C° 0 mm 2 m/S 759 mmHg 88%
    11:00 +3°C° 0 mm 2 m/S 759 mmHg 85%
    12:00 +4°C° 0 mm 2 m/S 759 mmHg 83%
    13:00 +4°C° 0 mm 2 m/S 760 mmHg 84%
    14:00 +4°C° 0 mm 2 m/S 760 mmHg 86%
    15:00 +4°C° 0 mm 2 m/S 760 mmHg 87%
    16:00 +3°C° 0 mm 2 m/S 761 mmHg 87%
    17:00 +2°C° 0 mm 2 m/S 761 mmHg 88%
    18:00 +1°C° 0 mm 2 m/S 762 mmHg 89%
    19:00 -1°C° 0 mm 2 m/S 762 mmHg 88%
    20:00 -1°C° 0 mm 2 m/S 763 mmHg 88%
    21:00 -1°C° 0 mm 2 m/S 764 mmHg 87%
    22:00 -1°C° 0 mm 2 m/S 764 mmHg 88%
    23:00 -2°C° 0 mm 2 m/S 764 mmHg 88%

    21 Januar, Montag

    Zeit Temperatur Niederschläge Wind Luftdruck Luftfeuchtigkeit
    00:00 -2°C° 0 mm 2 m/S 765 mmHg 88%
    01:00 -2°C° 0 mm 2 m/S 765 mmHg 88%
    02:00 -2°C° 0 mm 2 m/S 765 mmHg 87%
    03:00 -2°C° 0 mm 2 m/S 765 mmHg 87%
    04:00 -3°C° 0 mm 2 m/S 766 mmHg 87%
    05:00 -3°C° 0 mm 2 m/S 766 mmHg 87%
    06:00 -4°C° 0 mm 3 m/S 766 mmHg 87%
    07:00 -4°C° 0 mm 3 m/S 767 mmHg 85%
    08:00 -2°C° 0 mm 3 m/S 767 mmHg 83%
    09:00 -2°C° 0 mm 3 m/S 767 mmHg 81%
    10:00 -1°C° 0 mm 3 m/S 767 mmHg 77%
    11:00 0°C° 0 mm 3 m/S 767 mmHg 73%
    12:00 +1°C° 0 mm 3 m/S 767 mmHg 69%
    13:00 +2°C° 0 mm 2 m/S 767 mmHg 70%
    14:00 +2°C° 0 mm 2 m/S 767 mmHg 72%
    15:00 +2°C° 0 mm 2 m/S 767 mmHg 73%
    16:00 +1°C° 0 mm 2 m/S 767 mmHg 74%
    17:00 -1°C° 0 mm 2 m/S 767 mmHg 75%
    18:00 -2°C° 0 mm 2 m/S 767 mmHg 77%
    19:00 -2°C° 0 mm 2 m/S 767 mmHg 76%
    20:00 -2°C° 0 mm 2 m/S 767 mmHg 75%
    21:00 -2°C° 0 mm 2 m/S 766 mmHg 74%
    22:00 -3°C° 0 mm 2 m/S 766 mmHg 73%
    23:00 -3°C° 0 mm 2 m/S 766 mmHg 72%
    Mehr zeigen